EN

Hourly Weather Bolshie Prudischi

Today, 22 October, Thursday

Time Temperature Precipitation Wind Pressure Humidity
00:00 +1°C° 0 mm 2 mps 755 mmHg 93%
01:00 +1°C° 0 mm 2 mps 755 mmHg 94%
02:00 +2°C° 0 mm 1 mps 755 mmHg 94%
03:00 +2°C° 0 mm 1 mps 755 mmHg 95%
04:00 +1°C° 0 mm 2 mps 755 mmHg 95%
05:00 +1°C° 0 mm 2 mps 755 mmHg 95%
06:00 +1°C° 0 mm 2 mps 755 mmHg 95%
07:00 +2°C° 0 mm 2 mps 755 mmHg 95%
08:00 +2°C° 0 mm 2 mps 755 mmHg 94%
09:00 +3°C° 0 mm 2 mps 755 mmHg 93%
10:00 +3°C° 0 mm 2 mps 755 mmHg 91%
11:00 +4°C° 0 mm 2 mps 755 mmHg 89%
12:00 +3°C° 0 mm 3 mps 755 mmHg 87%
13:00 +3°C° 0 mm 3 mps 755 mmHg 86%
14:00 +4°C° 0 mm 3 mps 754 mmHg 84%
15:00 +4°C° 0 mm 3 mps 754 mmHg 82%
16:00 +4°C° 0 mm 3 mps 754 mmHg 84%
17:00 +4°C° 0 mm 3 mps 753 mmHg 85%
18:00 +4°C° 0 mm 3 mps 752 mmHg 86%
19:00 +4°C° 0 mm 4 mps 752 mmHg 86%
20:00 +4°C° 0 mm 4 mps 751 mmHg 87%
21:00 +4°C° 0 mm 4 mps 751 mmHg 87%
22:00 +4°C° 0.5 mm 4 mps 750 mmHg 88%
23:00 +3°C° 0.5 mm 5 mps 749 mmHg 90%

Tomorrow, 23 October, Friday

Time Temperature Precipitation Wind Pressure Humidity
00:00 +3°C° 0.5 mm 5 mps 748 mmHg 91%
01:00 +5°C° 0.1 mm 5 mps 748 mmHg 91%
02:00 +5°C° 0.1 mm 5 mps 747 mmHg 92%
03:00 +6°C° 0.1 mm 5 mps 746 mmHg 92%
04:00 +6°C° 0.2 mm 5 mps 746 mmHg 91%
05:00 +6°C° 0.2 mm 5 mps 745 mmHg 91%
06:00 +6°C° 0.2 mm 5 mps 745 mmHg 90%
07:00 +7°C° 0.2 mm 5 mps 744 mmHg 91%
08:00 +8°C° 0.2 mm 5 mps 744 mmHg 91%
09:00 +8°C° 0.2 mm 6 mps 744 mmHg 92%
10:00 +9°C° 0 mm 6 mps 744 mmHg 87%
11:00 +11°C° 0 mm 6 mps 745 mmHg 82%
12:00 +12°C° 0 mm 7 mps 745 mmHg 77%
13:00 +12°C° 0 mm 7 mps 745 mmHg 76%
14:00 +12°C° 0 mm 7 mps 745 mmHg 76%
15:00 +13°C° 0 mm 6 mps 745 mmHg 76%
16:00 +11°C° 0 mm 6 mps 745 mmHg 78%
17:00 +10°C° 0 mm 5 mps 746 mmHg 80%
18:00 +10°C° 0 mm 5 mps 746 mmHg 82%
19:00 +10°C° 0 mm 4 mps 745 mmHg 84%
20:00 +10°C° 0 mm 4 mps 745 mmHg 86%
21:00 +10°C° 0 mm 4 mps 745 mmHg 88%
22:00 +10°C° 0.8 mm 4 mps 744 mmHg 90%
23:00 +10°C° 0.8 mm 4 mps 743 mmHg 92%

Day after tomorrow, 24 October, Saturday

Time Temperature Precipitation Wind Pressure Humidity
00:00 +9°C° 0.8 mm 5 mps 742 mmHg 94%
01:00 +10°C° 0.7 mm 5 mps 742 mmHg 93%
02:00 +10°C° 0.7 mm 5 mps 742 mmHg 92%
03:00 +10°C° 0.7 mm 5 mps 742 mmHg 91%
04:00 +10°C° 0 mm 5 mps 742 mmHg 91%
05:00 +9°C° 0 mm 5 mps 742 mmHg 91%
06:00 +9°C° 0 mm 5 mps 743 mmHg 91%
07:00 +9°C° 0 mm 6 mps 743 mmHg 87%
08:00 +9°C° 0 mm 6 mps 744 mmHg 84%
09:00 +9°C° 0 mm 6 mps 745 mmHg 81%
10:00 +9°C° 0 mm 5 mps 745 mmHg 79%
11:00 +9°C° 0 mm 5 mps 746 mmHg 77%
12:00 +10°C° 0 mm 4 mps 746 mmHg 75%
13:00 +11°C° 0 mm 4 mps 747 mmHg 74%
14:00 +11°C° 0 mm 4 mps 747 mmHg 74%
15:00 +11°C° 0 mm 3 mps 747 mmHg 73%
16:00 +10°C° 0 mm 3 mps 747 mmHg 78%
17:00 +9°C° 0 mm 3 mps 747 mmHg 83%
18:00 +8°C° 0 mm 2 mps 748 mmHg 88%
19:00 +9°C° 0 mm 2 mps 748 mmHg 87%
20:00 +9°C° 0 mm 2 mps 748 mmHg 85%
21:00 +9°C° 0 mm 2 mps 748 mmHg 84%
22:00 +9°C° 0 mm 2 mps 748 mmHg 85%
23:00 +8°C° 0 mm 2 mps 748 mmHg 85%

, 25 October, Sunday

Time Temperature Precipitation Wind Pressure Humidity
00:00 +8°C° 0 mm 2 mps 748 mmHg 86%
01:00 +8°C° 0 mm 2 mps 748 mmHg 86%
02:00 +8°C° 0 mm 2 mps 748 mmHg 87%
03:00 +8°C° 0 mm 2 mps 747 mmHg 88%
04:00 +7°C° 0 mm 2 mps 747 mmHg 88%
05:00 +7°C° 0 mm 2 mps 747 mmHg 89%
06:00 +7°C° 0 mm 2 mps 747 mmHg 89%
07:00 +8°C° 0.2 mm 1 mps 747 mmHg 90%
08:00 +8°C° 0.2 mm 1 mps 746 mmHg 91%
09:00 +8°C° 0.2 mm 1 mps 746 mmHg 91%
10:00 +8°C° 0.7 mm 1 mps 746 mmHg 93%
11:00 +8°C° 0.7 mm 1 mps 746 mmHg 94%
12:00 +8°C° 0.7 mm 1 mps 746 mmHg 95%
13:00 +8°C° 0.4 mm 1 mps 746 mmHg 94%
14:00 +7°C° 0.4 mm 2 mps 746 mmHg 94%
15:00 +7°C° 0.4 mm 3 mps 746 mmHg 93%
16:00 +7°C° 0.3 mm 3 mps 746 mmHg 92%
17:00 +6°C° 0.3 mm 4 mps 746 mmHg 91%
18:00 +6°C° 0.3 mm 5 mps 747 mmHg 91%
19:00 +6°C° 0 mm 4 mps 747 mmHg 90%
20:00 +6°C° 0 mm 4 mps 748 mmHg 89%
21:00 +5°C° 0 mm 4 mps 749 mmHg 88%
22:00 +5°C° 0 mm 4 mps 749 mmHg 88%
23:00 +4°C° 0 mm 4 mps 750 mmHg 88%

25 October, Sunday

Time Temperature Precipitation Wind Pressure Humidity
00:00 +8°C° 0 mm 2 mps 748 mmHg 86%
01:00 +8°C° 0 mm 2 mps 748 mmHg 86%
02:00 +8°C° 0 mm 2 mps 748 mmHg 87%
03:00 +8°C° 0 mm 2 mps 747 mmHg 88%
04:00 +7°C° 0 mm 2 mps 747 mmHg 88%
05:00 +7°C° 0 mm 2 mps 747 mmHg 89%
06:00 +7°C° 0 mm 2 mps 747 mmHg 89%
07:00 +8°C° 0.2 mm 1 mps 747 mmHg 90%
08:00 +8°C° 0.2 mm 1 mps 746 mmHg 91%
09:00 +8°C° 0.2 mm 1 mps 746 mmHg 91%
10:00 +8°C° 0.7 mm 1 mps 746 mmHg 93%
11:00 +8°C° 0.7 mm 1 mps 746 mmHg 94%
12:00 +8°C° 0.7 mm 1 mps 746 mmHg 95%
13:00 +8°C° 0.4 mm 1 mps 746 mmHg 94%
14:00 +7°C° 0.4 mm 2 mps 746 mmHg 94%
15:00 +7°C° 0.4 mm 3 mps 746 mmHg 93%
16:00 +7°C° 0.3 mm 3 mps 746 mmHg 92%
17:00 +6°C° 0.3 mm 4 mps 746 mmHg 91%
18:00 +6°C° 0.3 mm 5 mps 747 mmHg 91%
19:00 +6°C° 0 mm 4 mps 747 mmHg 90%
20:00 +6°C° 0 mm 4 mps 748 mmHg 89%
21:00 +5°C° 0 mm 4 mps 749 mmHg 88%
22:00 +5°C° 0 mm 4 mps 749 mmHg 88%
23:00 +4°C° 0 mm 4 mps 750 mmHg 88%

26 October, Monday

Time Temperature Precipitation Wind Pressure Humidity
00:00 +3°C° 0 mm 4 mps 751 mmHg 88%
01:00 +3°C° 0 mm 4 mps 751 mmHg 89%
02:00 +2°C° 0 mm 3 mps 752 mmHg 89%
03:00 +2°C° 0 mm 3 mps 752 mmHg 90%
04:00 +2°C° 0 mm 3 mps 753 mmHg 90%
05:00 +1°C° 0 mm 3 mps 753 mmHg 91%
06:00 +1°C° 0 mm 3 mps 754 mmHg 92%
07:00 +2°C° 0 mm 3 mps 754 mmHg 89%
08:00 +3°C° 0 mm 2 mps 755 mmHg 86%
09:00 +3°C° 0 mm 2 mps 756 mmHg 83%
10:00 +5°C° 0 mm 2 mps 756 mmHg 78%
11:00 +6°C° 0 mm 2 mps 756 mmHg 74%
12:00 +7°C° 0 mm 2 mps 757 mmHg 69%
13:00 +7°C° 0 mm 2 mps 757 mmHg 70%
14:00 +8°C° 0 mm 3 mps 757 mmHg 71%
15:00 +8°C° 0 mm 3 mps 757 mmHg 71%
16:00 +7°C° 0 mm 2 mps 758 mmHg 75%
17:00 +6°C° 0 mm 2 mps 758 mmHg 80%
18:00 +7°C° 0 mm 1 mps 758 mmHg 84%
19:00 +6°C° 0 mm 1 mps 759 mmHg 86%
20:00 +6°C° 0 mm 1 mps 759 mmHg 89%
21:00 +5°C° 0 mm 1 mps 759 mmHg 91%
22:00 +5°C° 0 mm 1 mps 759 mmHg 91%
23:00 +5°C° 0 mm 1 mps 759 mmHg 92%

27 October, Tuesday

Time Temperature Precipitation Wind Pressure Humidity
00:00 +4°C° 0 mm 1 mps 760 mmHg 92%
01:00 +4°C° 0 mm 1 mps 760 mmHg 92%
02:00 +4°C° 0 mm 1 mps 760 mmHg 92%
03:00 +4°C° 0 mm 1 mps 760 mmHg 93%
04:00 +3°C° 0 mm 1 mps 760 mmHg 93%
05:00 +2°C° 0 mm 0 mps 761 mmHg 93%
06:00 +2°C° 0 mm 0 mps 761 mmHg 93%
07:00 +3°C° 0 mm 0 mps 761 mmHg 91%
08:00 +3°C° 0 mm 0 mps 761 mmHg 89%
09:00 +4°C° 0 mm 0 mps 761 mmHg 87%
10:00 +5°C° 0 mm 0 mps 761 mmHg 82%
11:00 +7°C° 0 mm 1 mps 761 mmHg 77%
12:00 +8°C° 0 mm 1 mps 762 mmHg 72%
13:00 +9°C° 0 mm 1 mps 762 mmHg 71%
14:00 +9°C° 0 mm 1 mps 762 mmHg 70%
15:00 +9°C° 0 mm 1 mps 762 mmHg 68%
16:00 +8°C° 0 mm 1 mps 762 mmHg 74%
17:00 +7°C° 0 mm 1 mps 761 mmHg 79%
18:00 +6°C° 0 mm 1 mps 761 mmHg 84%
19:00 +6°C° 0 mm 1 mps 761 mmHg 86%
20:00 +4°C° 0 mm 2 mps 761 mmHg 87%
21:00 +4°C° 0 mm 2 mps 761 mmHg 89%
22:00 +4°C° 0 mm 2 mps 761 mmHg 90%
23:00 +4°C° 0 mm 2 mps 761 mmHg 91%
Show more